Location: Unspecified
(0.0000°N, 0.0000°E)
Time: 20:31:43
(UTC+00:00)

Vanguard 2 Rocket - Visible Passes

Search period start: 24 April 2018 00:00
Search period end: 04 May 2018 00:00
Orbit: 553 x 3328 km, 32.9° (Epoch: 24 April)

Date Brightness Start Highest point End Pass type
(mag) Time Alt. Az. Time Alt. Az. Time Alt. Az.
24 Apr 10.2 01:08:38 26° NE 01:08:38 26° NE 01:14:57 10° NE visible
24 Apr 9.8 03:14:26 30° NW 03:17:24 31° NNW 03:33:22 10° NE visible
24 Apr 10.7 05:28:34 10° NW 05:40:29 19° N 05:53:10 10° NNE visible
25 Apr 10.8 00:12:16 10° ENE 00:12:16 10° ENE 00:12:25 10° ENE visible
25 Apr 9.7 02:18:03 36° N 02:18:03 36° N 02:31:05 10° NE visible
25 Apr 10.4 04:25:19 10° NW 04:36:41 21° N 04:50:07 10° NNE visible
26 Apr 10.1 01:21:38 27° NNE 01:21:38 27° NNE 01:28:51 10° NE visible
26 Apr 10.1 03:27:25 19° NW 03:33:28 24° NNW 03:47:17 10° NNE visible
27 Apr 10.6 00:25:12 13° NE 00:25:12 13° NE 00:26:40 10° NE visible
27 Apr 9.9 02:30:59 27° NNW 02:30:59 27° NNW 02:44:44 10° NNE visible
27 Apr 10.6 04:42:53 10° NW 04:53:35 18° N 05:05:40 10° NE visible
28 Apr 10.1 01:34:31 26° NNE 01:34:31 26° NNE 01:42:28 10° NE visible
28 Apr 10.4 03:40:24 10° NW 03:50:00 19° N 04:01:48 10° NNE visible
29 Apr 10.5 00:38:02 15° NE 00:38:02 15° NE 00:40:28 10° NE visible
29 Apr 10.1 02:43:49 19° NNW 02:47:05 20° NNW 02:58:32 10° NNE visible
29 Apr 10.8 04:59:40 10° NNW 05:10:40 18° N 05:22:42 10° NE visible
30 Apr 10.1 01:47:20 21° N 01:47:20 21° N 01:55:55 10° NNE visible
30 Apr 10.6 03:57:48 10° NNW 04:06:53 16° N 04:17:33 10° NE visible
01 May 10.4 00:50:50 16° NNE 00:50:50 16° NNE 00:53:54 10° NNE visible
01 May 10.4 02:56:37 11° NW 03:03:38 16° N 03:12:57 10° NNE visible
01 May 10.8 05:15:09 10° NNW 05:27:34 20° NNE 05:40:49 10° ENE visible
02 May 10.2 02:00:07 16° NNW 02:01:05 16° N 02:09:25 10° NNE visible
02 May 10.7 04:14:11 10° NNW 04:23:52 17° N 04:34:59 10° NE visible
03 May 10.4 01:03:37 15° N 01:03:37 15° N 01:07:02 10° NNE visible
03 May 10.6 03:13:24 10° NNW 03:20:27 14° N 03:28:48 10° NNE visible
03 May 10.9 05:29:38 10° NNW 05:43:56 26° NNE 05:58:56 10° ENE visible
